Flag for Norway Weather past 2 weeks in Kragerø, Norway

Now
51 °F

Cool.


Feels Like: 49 °F
Forecast: 46 / 52 °F
Wind: 7 mph from Southeast

Location: Jomfruland Fyr

Current Time: May 5, 2015 at 7:28:26 PM

Latest Report: May 5, 2015 at 6:00 PM


Visibility: N/A

Pressure: 29.41 "Hg

Humidity: 95%

Dew point: 50 °F

Location of KragerøLocation

Historic Weather in Kragerø — Graph

°F

Kragerø temperature yesterday

Maximum temperature yesterday: 50 °F (at 7:00 PM)
Minimum temperature yesterday: 44 °F (at 8:00 AM)
Average temperature yesterday: 47 °F

Past Weeks' High & Low Weather Summary

 TemperatureHumidityPressure
High67 °F (Apr 20, 6:00 PM)96% (Apr 25, 1:00 PM)30.34 "Hg (Apr 25, 1:00 PM)
Low35 °F (Apr 28, 6:00 AM)17% (Apr 20, 6:00 PM)29.38 "Hg (Apr 25, 7:00 PM)
Average47 °F71%29.79 "Hg
* Reported Apr 20 6:00 PM — May 5 6:00 PM, Kragerø, Weather by CustomWeather, © 2015

Note: Actual official high and low records may vary slightly from our data, if they occured in-between our weather recording intervals... More about our weather records

Advertising

Kragerø weather history for previous 24 hours

 ConditionsComfort  
Time TempWeatherWind HumidityBarometerVisibility
6:00 PM
Tue, May 5
51 °FCool.7 mph95%29.41 "HgN/A
5:00 PM50 °FCool.10 mph95%29.41 "HgN/A
4:00 PM50 °FCool.10 mph94%29.47 "HgN/A
3:00 PM50 °FCool.10 mph93%29.50 "HgN/A
2:00 PM50 °FCool.8 mph93%29.59 "HgN/A
1:00 PM49 °FCool.7 mph93%29.62 "HgN/A
12:00 PM48 °FCool.7 mph93%29.66 "HgN/A
11:00 AM47 °FCool.7 mph94%29.69 "HgN/A
10:00 AM46 °FCool.7 mph95%29.70 "HgN/A
9:00 AM46 °FCool.6 mph95%29.72 "HgN/A
8:00 AM46 °FCool.6 mph92%29.73 "HgN/A
7:00 AM46 °FCool.6 mph91%29.74 "HgN/A
6:00 AM46 °FCool.6 mph88%29.75 "HgN/A
5:00 AM46 °FCool.5 mph86%29.75 "HgN/A
4:00 AM46 °FCool.5 mph86%29.77 "HgN/A
3:00 AM46 °FCool.3 mph87%29.76 "HgN/A
2:00 AM46 °FCool.3 mph89%29.77 "HgN/A
1:00 AM47 °FCool.3 mph90%29.75 "HgN/A
12:00 AM47 °FCool.1 mph91%29.75 "HgN/A
11:00 PM
Mon, May 4
48 °FCool.2 mph89%29.75 "HgN/A
10:00 PM47 °FCool.1 mph89%29.73 "HgN/A
9:00 PM48 °FCool.1 mph87%29.72 "HgN/A
8:00 PM48 °FCool.1 mph86%29.70 "HgN/A
7:00 PM50 °FCool.1 mph79%29.67 "HgN/A
Weather by CustomWeather, © 2015

See weather overviewHow to use our weather pages